Location: Unnamed
(51.5169°N, 0.1311°W)
Time: 06:02:30
(UTC+01:00)

Vanguard 1 - Pass Details

Date: 11 August 2024
Orbit: 649 x 3825 km, 34.2° (Epoch: 16 September)

Event Time Altitude Azimuth Distance (km) Brightness Sun altitude
Rises 21:32:23 0° 185° (S) 4,058 12.9 -9.1°
Reaches altitude 10° 21:36:48 10° 159° (SSE) 3,622 12.4 -9.6°
Maximum altitude 21:40:56 14° 133° (SE) 3,837 12.4 -10.1°
Drops below altitude 10° 21:46:03 10° 108° (ESE) 4,717 13.0 -10.7°
Sets 21:53:49 0° 88° (E) 6,534 13.8 -11.6°
